Location: *
(34.8620°S, 39.3380°E)
Time: 23:41:15
(UTC+00:00)

CZ-2C R/B - Pass Details

Date: 27 July 2021
Orbit: 784 x 870 km, 98.2° (Epoch: 20 September)

Event Time Altitude Azimuth Distance (km) Brightness Sun altitude
Rises 03:31:43 0° 163° (SSE) 3,459 5.9 -10.3°
Reaches altitude 10° 03:34:09 10° 158° (SSE) 2,524 5.3 -9.8°
Maximum altitude 03:39:42 56° 80° (E) 1,029 3.6 -8.8°
Drops below altitude 10° 03:45:12 10° 2° (N) 2,515 5.4 -7.7°
Sets 03:47:37 0° 357° (N) 3,445 6.1 -7.2°
